This is the latest recevied weather packets stored in our database for station/object DD3UTS-13. If no packets are shown the sender has not sent any weather packets the latest 10 day(s).
| Time | Temp. | Humidity | Pressure | Rain* | Wind** | Luminosity | Snow |
|---|---|---|---|---|---|---|---|
| 1777892132 | 23.33° C | 38% | 1013 hPa | 0 mm | - | 580 W/m² | - |
| 1777891832 | 23.89° C | 38% | 1013 hPa | 0 mm | - | 611 W/m² | - |
| 1777891531 | 23.33° C | 38% | 1013 hPa | 0 mm | - | 615 W/m² | - |
| 1777891232 | 22.78° C | 37% | 1013.1 hPa | 0 mm | - | 579 W/m² | - |
| 1777890932 | 22.78° C | 38% | 1013.2 hPa | 0 mm | - | 596 W/m² | - |
| 1777890632 | 23.33° C | 39% | 1013.3 hPa | 0 mm | - | 610 W/m² | - |
| 1777890332 | 23.33° C | 38% | 1013.3 hPa | 0 mm | - | 579 W/m² | - |
| 1777890032 | 22.78° C | 39% | 1013.2 hPa | 0 mm | - | 594 W/m² | - |
| 1777889732 | 22.22° C | 38% | 1013.3 hPa | 0 mm | - | 588 W/m² | - |
| 1777889432 | 22.78° C | 38% | 1013.4 hPa | 0 mm | - | 526 W/m² | - |
| 1777889132 | 22.78° C | 38% | 1013.2 hPa | 0 mm | - | 566 W/m² | - |
| 1777888831 | 22.78° C | 38% | 1013.3 hPa | 0 mm | - | 553 W/m² | - |
| 1777888532 | 22.78° C | 40% | 1013.3 hPa | 0 mm | - | 571 W/m² | - |
| 1777888232 | 22.22° C | 39% | 1013.4 hPa | 0 mm | - | 587 W/m² | - |
| 1777887932 | 22.22° C | 41% | 1013.4 hPa | 0 mm | - | 581 W/m² | - |
| 1777887632 | 21.67° C | 41% | 1013.4 hPa | 0 mm | - | 580 W/m² | - |
| 1777887332 | 21.67° C | 41% | 1013.4 hPa | 0 mm | - | 388 W/m² | - |
| 1777887031 | 21.67° C | 41% | 1013.5 hPa | 0 mm | - | 542 W/m² | - |
| 1777886731 | 22.22° C | 41% | 1013.5 hPa | 0 mm | - | 487 W/m² | - |
| 1777886432 | 22.22° C | 40% | 1013.5 hPa | 0 mm | - | 536 W/m² | - |
| 1777886131 | 21.67° C | 42% | 1013.5 hPa | 0 mm | - | 554 W/m² | - |
| 1777885832 | 21.11° C | 42% | 1013.5 hPa | 0 mm | - | 525 W/m² | - |
| 1777885531 | 20.56° C | 46% | 1013.6 hPa | 0 mm | - | 535 W/m² | - |
| 1777885231 | 20.56° C | 46% | 1013.6 hPa | 0 mm | - | 544 W/m² | - |
| 1777884931 | 20° C | 46% | 1013.7 hPa | 0 mm | - | 516 W/m² | - |
* Rain latest 24 hours (hover to see other rain measurements)
** Current wind speed in m/s (hover to see current wind gust speed)